Location: Foligno
(42.9600°N, 12.7050°E)
Time: 19:59:40
(UTC+02:00)

ISS - Pass Details

Date: 24 May 2018
Orbit: 402 x 408 km, 51.6° (Epoch: 19 September)

Event Time Altitude Azimuth Distance (km) Brightness Sun altitude
Rises 01:16:39 0° 303° (WNW) 2,319 0.4 -26.3°
Reaches altitude 10° 01:19:03 10° 320° (NW) 1,458 -0.5 -26.3°
Maximum altitude 01:21:39 21° 13° (NNE) 961 -1.2 -26.2°
Enters shadow 01:23:24 15° 54° (NE) 1,215 -1.0 -26.2°
